This is the latest recevied weather packets stored in our database for station/object KF3BH. If no packets are shown the sender has not sent any weather packets the latest 10 day(s).
| Time | Temp. | Humidity | Pressure | Rain* | Wind** | Luminosity | Snow |
|---|---|---|---|---|---|---|---|
| 1777497026 | 11.11° C | 88% | 1008.8 hPa | 0 mm | - | 18 W/m² | - |
| 1777492225 | 11.67° C | 91% | 1010.1 hPa | 1.27 mm | - | 39 W/m² | - |
| 1777486225 | 12.22° C | 90% | 1011.5 hPa | 1.02 mm | - | 58 W/m² | - |
| 1777485626 | 12.78° C | 88% | 1011.8 hPa | 0.76 mm | - | 40 W/m² | - |
| 1777485025 | 13.33° C | 84% | 1012.1 hPa | 0 mm | - | 32 W/m² | - |
| 1777484425 | 13.33° C | 82% | 1012.1 hPa | 0 mm | - | 62 W/m² | - |
| 1777479025 | 13.33° C | 81% | 1012.6 hPa | 0 mm | - | 120 W/m² | - |
| 1777468826 | 11.67° C | 75% | 1013.8 hPa | 0 mm | - | 100 W/m² | - |
| 1777465225 | 11.11° C | 75% | 1014.8 hPa | 0 mm | - | 74 W/m² | - |
| 1777463425 | 11.11° C | 78% | 1015.1 hPa | 0 mm | - | 42 W/m² | - |
| 1777462225 | 11.11° C | 78% | 1015 hPa | 0 mm | - | 33 W/m² | - |
| 1777461025 | 11.11° C | 76% | 1015 hPa | 0 mm | - | 14 W/m² | - |
| 1777459225 | 11.11° C | 77% | 1014.6 hPa | 0 mm | - | 7 W/m² | - |
| 1777456225 | 11.11° C | 76% | 1014.7 hPa | 0 mm | - | 0 W/m² | - |
| 1777455625 | 11.11° C | 76% | 1014.6 hPa | 0 mm | - | 0 W/m² | - |
| 1777449025 | 11.11° C | 77% | 1015.7 hPa | 0 mm | - | 0 W/m² | - |
| 1777448426 | 11.11° C | 75% | 1015.8 hPa | 0 mm | - | 0 W/m² | - |
| 1777446025 | 10.56° C | 75% | 1015.7 hPa | 0 mm | - | 0 W/m² | - |
| 1777444825 | 10.56° C | 76% | 1015.8 hPa | 0 mm | - | 0 W/m² | - |
| 1777443025 | 10.56° C | 76% | 1016.2 hPa | 0 mm | - | 0 W/m² | - |
| 1777440625 | 10.56° C | 78% | 1017.1 hPa | 0 mm | - | 0 W/m² | - |
| 1777440025 | 10.56° C | 78% | 1017.2 hPa | 0 mm | - | 0 W/m² | - |
| 1777438825 | 10.56° C | 77% | 1017.3 hPa | 0 mm | - | 0 W/m² | - |
| 1777438225 | 10.56° C | 76% | 1017.3 hPa | 0 mm | - | 0 W/m² | - |
| 1777437626 | 10.56° C | 76% | 1017.3 hPa | 0 mm | - | 0 W/m² | - |
* Rain latest hour (hover to see other rain measurements)
** Current wind speed in m/s (hover to see current wind gust speed)